sat.trackr.live / text

‹ back to catalog

STARLINK-36938

NORAD 68124 · 2026-044Z

PAYLOAD ACTIVE UNKNOWN

§ Identity

Operator
Country
US
Launch date
2026-03-08
Launch site
AFWTR
Launch vehicle
Mass (kg)
RCS (m²)

Purposes: comms

External: N2YO · Heavens-Above · Gunter

§ Orbital elements

Epoch: 2026-09-20T04:19:56.865792Z

Period
93.91 min
Inclination
97.2853°
Eccentricity
0.0002317
Mean motion
15.33462141 rev/d
Perigee alt
463.9 km
Apogee alt
467.1 km
Semi-major
6,843.6 km
B*
6.9850e-4
RAAN
225.1093°
Arg perigee
92.6020°
Mean anomaly
267.5488°
Rev number
3,158

§ Raw data

STARLINK-369381 68124U 26044Z   26263.18051928  .00022556  00000+0  69850-3 0  99902 68124  97.2853 225.1093 0002317  92.6020 267.5488 15.33462141 31588

JSON: /api/v1/satellites/68124 · /tle

For live sub-satellite position, see the globe view (requires WebGL).

§ Visibility from observer

Set your observer location to see the next 7 days of passes ≥ 10°. The values pass through the URL so the page stays shareable.

No JS? Fill the form by hand. The geolocation button needs JavaScript.